SZN313 DIAP-DFFD

Flight info

Callsign SZN313
Flight time 1h 18m
Altitude 23000
Route ZANOU G859 AMSAT/N0459F350 UG859 TUMUT TUMUT1E
Aircraft B738/M-SDE2E3FGHIRWXY/LB1

Departure

Time 2026-05-04 07:17
Airport Félix-Houphouët-Boigny International Airport (DIAP)

Arrival

Time 2026-05-04 08:35
Airport Ouagadougou Thomas Sankara International Airport (DFFD)
Time Latitude Longitude Altitude Speed Heading
2026-05-04 06:25 5.25551 -3.93124 27 ft 0 kts 320°
2026-05-04 07:08 5.25531 -3.93103 27 ft 2 kts 303°
2026-05-04 07:09 5.25524 -3.93088 27 ft 2 kts 281°
2026-05-04 07:09 5.25525 -3.93072 27 ft 2 kts 239°
2026-05-04 07:09 5.25536 -3.93061 27 ft 2 kts 201°
2026-05-04 07:09 5.25540 -3.93059 27 ft 0 kts 192°
2026-05-04 07:12 5.25377 -3.93111 27 ft 0 kts 204°
2026-05-04 07:13 5.25370 -3.93114 27 ft 3 kts 204°
2026-05-04 07:14 5.25138 -3.93209 28 ft 15 kts 202°
2026-05-04 07:14 5.25052 -3.93245 29 ft 11 kts 202°
2026-05-04 07:15 5.24979 -3.93255 29 ft 11 kts 162°
2026-05-04 07:15 5.24927 -3.93203 29 ft 11 kts 121°
2026-05-04 07:15 5.24889 -3.93133 29 ft 12 kts 105°
2026-05-04 07:15 5.24922 -3.93085 28 ft 9 kts 29°
2026-05-04 07:16 5.24986 -3.93054 27 ft 18 kts 24°
2026-05-04 07:16 5.25401 -3.92886 29 ft 109 kts 22°
2026-05-04 07:16 5.26353 -3.92488 29 ft 184 kts 25°
2026-05-04 07:16 5.27641 -3.91948 587 ft 214 kts 20°
2026-05-04 07:17 5.29144 -3.91450 1167 ft 238 kts 19°
2026-05-04 07:17 5.30785 -3.90901 1832 ft 257 kts 19°
2026-05-04 07:17 5.32520 -3.90319 2498 ft 259 kts 19°
2026-05-04 07:17 5.34119 -3.89785 2980 ft 231 kts 19°
2026-05-04 07:18 5.35557 -3.89305 3247 ft 205 kts 20°
2026-05-04 07:18 5.36854 -3.88872 3323 ft 191 kts 20°
2026-05-04 07:18 5.37357 -3.88703 3324 ft 210 kts 20°
2026-05-04 07:19 5.38026 -3.88477 3393 ft 228 kts 20°
2026-05-04 07:19 5.39640 -3.87933 3682 ft 260 kts 20°
2026-05-04 07:19 5.41406 -3.87339 4351 ft 271 kts 20°
2026-05-04 07:20 5.43206 -3.86737 5296 ft 273 kts 20°
2026-05-04 07:20 5.45018 -3.86130 6234 ft 275 kts 21°
2026-05-04 07:20 5.46838 -3.85521 7100 ft 276 kts 22°
2026-05-04 07:20 5.48669 -3.84908 7980 ft 278 kts 22°
2026-05-04 07:22 5.61725 -3.80531 9994 ft 288 kts 24°
2026-05-04 07:22 5.63633 -3.79891 9993 ft 290 kts 24°
2026-05-04 07:23 5.65549 -3.79249 9992 ft 290 kts 24°
2026-05-04 07:23 5.67464 -3.78607 9987 ft 290 kts 24°
2026-05-04 07:23 5.69376 -3.77967 9984 ft 289 kts 24°
2026-05-04 07:23 5.71255 -3.77337 9985 ft 288 kts 24°
2026-05-04 07:24 5.73147 -3.76703 9982 ft 287 kts 24°
2026-05-04 07:24 5.75042 -3.76068 9982 ft 285 kts 24°
2026-05-04 07:24 5.76923 -3.75437 9979 ft 285 kts 24°
2026-05-04 07:24 5.78800 -3.74807 9980 ft 284 kts 24°
2026-05-04 07:25 5.80673 -3.74180 9980 ft 283 kts 24°
2026-05-04 07:26 5.93144 -3.69991 9987 ft 285 kts 24°
2026-05-04 07:27 5.95030 -3.69359 9987 ft 286 kts 24°
2026-05-04 07:27 5.96916 -3.68725 9990 ft 286 kts 24°
2026-05-04 07:27 5.98803 -3.68092 9988 ft 286 kts 24°
2026-05-04 07:27 6.00689 -3.67459 9990 ft 286 kts 24°
2026-05-04 07:28 6.02577 -3.66825 9988 ft 286 kts 24°
2026-05-04 07:28 6.04470 -3.66189 9994 ft 286 kts 24°
2026-05-04 07:28 6.06362 -3.65553 10007 ft 289 kts 24°
2026-05-04 07:28 6.08310 -3.64894 10149 ft 311 kts 24°
2026-05-04 07:29 6.10428 -3.64176 10519 ft 327 kts 23°
2026-05-04 07:29 6.12609 -3.63442 11151 ft 333 kts 23°
2026-05-04 07:29 6.14820 -3.62701 11882 ft 336 kts 22°
2026-05-04 07:29 6.17061 -3.61951 12595 ft 340 kts 22°
2026-05-04 07:30 6.19321 -3.61193 13305 ft 344 kts 22°
2026-05-04 07:30 6.21608 -3.60426 13976 ft 348 kts 22°
2026-05-04 07:30 6.23919 -3.59651 14615 ft 351 kts 22°
2026-05-04 07:30 6.26245 -3.58870 15266 ft 354 kts 22°
2026-05-04 07:31 6.28592 -3.58081 15917 ft 357 kts 22°
2026-05-04 07:31 6.30926 -3.57297 16529 ft 360 kts 22°
2026-05-04 07:33 6.48096 -3.51522 20294 ft 384 kts 21°
2026-05-04 07:33 6.50643 -3.50666 20771 ft 388 kts 20°
2026-05-04 07:33 6.53217 -3.49800 21239 ft 392 kts 20°
2026-05-04 07:33 6.55814 -3.48926 21717 ft 395 kts 20°
2026-05-04 07:34 6.58439 -3.48044 22169 ft 399 kts 20°
2026-05-04 07:34 6.61094 -3.47153 22612 ft 403 kts 19°
2026-05-04 07:34 6.63766 -3.46256 23067 ft 407 kts 19°
2026-05-04 07:34 6.66427 -3.45363 23492 ft 410 kts 19°
2026-05-04 07:35 6.69149 -3.44449 23866 ft 413 kts 19°
2026-05-04 07:35 6.71887 -3.43529 24224 ft 417 kts 19°
2026-05-04 07:35 6.74648 -3.42602 24576 ft 419 kts 19°
2026-05-04 07:35 6.77432 -3.41666 24943 ft 422 kts 19°
2026-05-04 07:36 6.80232 -3.40725 25274 ft 426 kts 19°
2026-05-04 07:36 6.83054 -3.39776 25596 ft 429 kts 19°
2026-05-04 07:38 7.03381 -3.32939 27825 ft 450 kts 18°
2026-05-04 07:38 7.06364 -3.31935 28119 ft 453 kts 18°
2026-05-04 07:38 7.09365 -3.30925 28411 ft 456 kts 18°
2026-05-04 07:38 7.12389 -3.29907 28692 ft 459 kts 18°
2026-05-04 07:39 7.15388 -3.28897 28959 ft 462 kts 18°
2026-05-04 07:39 7.18452 -3.27866 29223 ft 465 kts 18°
2026-05-04 07:39 7.21528 -3.26830 29500 ft 467 kts 18°
2026-05-04 07:39 7.24623 -3.25787 29779 ft 470 kts 18°
2026-05-04 07:40 7.27737 -3.24738 30026 ft 472 kts 18°
2026-05-04 07:40 7.30873 -3.23682 30255 ft 475 kts 18°
2026-05-04 07:40 7.34008 -3.22625 30516 ft 475 kts 18°
2026-05-04 07:40 7.37113 -3.21579 30790 ft 476 kts 18°
2026-05-04 07:41 7.40250 -3.20521 31063 ft 476 kts 18°
2026-05-04 07:41 7.43400 -3.19459 31310 ft 477 kts 18°
2026-05-04 07:41 7.46556 -3.18395 31602 ft 477 kts 18°
2026-05-04 07:41 7.49691 -3.17337 31988 ft 474 kts 18°
2026-05-04 07:42 7.52809 -3.16285 32402 ft 471 kts 18°
2026-05-04 07:42 7.55915 -3.15237 32788 ft 469 kts 17°
2026-05-04 07:42 7.59006 -3.14194 33129 ft 468 kts 17°
2026-05-04 07:42 7.62092 -3.13152 33474 ft 467 kts 17°
2026-05-04 07:43 7.65169 -3.12114 33850 ft 465 kts 17°
2026-05-04 07:43 7.68229 -3.11081 34206 ft 463 kts 17°
2026-05-04 07:43 7.71233 -3.10066 34506 ft 461 kts 17°
2026-05-04 07:43 7.74285 -3.09036 34784 ft 461 kts 17°
2026-05-04 07:44 7.77325 -3.08009 35005 ft 461 kts 17°
2026-05-04 07:44 7.80387 -3.06974 34982 ft 465 kts 17°
2026-05-04 07:44 7.86534 -3.04896 34986 ft 463 kts 17°
2026-05-04 07:45 7.92604 -3.02841 34994 ft 458 kts 17°
2026-05-04 07:45 7.98618 -3.00806 34998 ft 458 kts 17°
2026-05-04 07:46 8.04670 -2.98758 34998 ft 459 kts 17°
2026-05-04 07:46 8.10734 -2.96706 34991 ft 459 kts 16°
2026-05-04 07:47 8.16800 -2.94651 35002 ft 460 kts 16°
2026-05-04 07:49 8.41122 -2.86406 34996 ft 462 kts 16°
2026-05-04 07:49 8.47233 -2.84334 34985 ft 463 kts 16°
2026-05-04 07:50 8.53348 -2.82258 34983 ft 463 kts 16°
2026-05-04 07:50 8.59432 -2.80193 34985 ft 464 kts 16°
2026-05-04 07:51 8.65554 -2.78114 34981 ft 464 kts 16°
2026-05-04 07:51 8.71682 -2.76032 34980 ft 464 kts 16°
2026-05-04 07:52 8.77766 -2.73964 34978 ft 464 kts 16°
2026-05-04 07:52 8.83890 -2.71882 34986 ft 463 kts 16°
2026-05-04 07:54 9.08302 -2.63569 34978 ft 463 kts 17°
2026-05-04 07:55 9.14411 -2.61482 34979 ft 463 kts 17°
2026-05-04 07:55 9.20526 -2.59391 34979 ft 463 kts 16°
2026-05-04 07:56 9.26640 -2.57300 34976 ft 463 kts 17°
2026-05-04 07:56 9.32711 -2.55224 34982 ft 463 kts 17°
2026-05-04 07:57 9.38833 -2.53129 34978 ft 464 kts 16°
2026-05-04 07:57 9.44956 -2.51033 34972 ft 464 kts 16°
2026-05-04 07:58 9.51083 -2.48935 34979 ft 464 kts 16°
2026-05-04 07:58 9.57159 -2.46853 34979 ft 464 kts 16°
2026-05-04 07:59 9.63282 -2.44755 34969 ft 464 kts 16°
2026-05-04 07:59 9.69402 -2.42656 34970 ft 464 kts 16°
2026-05-04 08:00 9.75524 -2.40557 34965 ft 464 kts 16°
2026-05-04 08:02 9.99972 -2.32163 34966 ft 464 kts 17°
2026-05-04 08:02 10.06090 -2.30061 34968 ft 464 kts 17°
2026-05-04 08:03 10.12213 -2.27955 34966 ft 464 kts 17°
2026-05-04 08:03 10.18334 -2.25850 34963 ft 464 kts 17°
2026-05-04 08:04 10.24414 -2.23761 34962 ft 464 kts 17°
2026-05-04 08:04 10.30536 -2.21665 34961 ft 464 kts 17°
2026-05-04 08:05 10.36669 -2.19565 34960 ft 464 kts 17°
2026-05-04 08:05 10.42801 -2.17463 34959 ft 464 kts 17°
2026-05-04 08:06 10.48896 -2.15371 34959 ft 465 kts 17°
2026-05-04 08:06 10.55025 -2.13268 34961 ft 465 kts 17°
2026-05-04 08:08 10.79570 -2.04833 34957 ft 466 kts 17°
2026-05-04 08:10 11.04125 -1.96382 31808 ft 459 kts 18°
2026-05-04 08:11 11.06135 -1.95691 31518 ft 456 kts 18°
2026-05-04 08:11 11.12118 -1.93634 30579 ft 451 kts 18°
2026-05-04 08:11 11.15088 -1.92612 30130 ft 449 kts 18°
2026-05-04 08:12 11.18041 -1.91596 29603 ft 446 kts 18°
2026-05-04 08:12 11.20940 -1.90597 29120 ft 443 kts 18°
2026-05-04 08:12 11.23850 -1.89595 28637 ft 439 kts 18°
2026-05-04 08:12 11.26734 -1.88601 28167 ft 435 kts 18°
2026-05-04 08:13 11.29592 -1.87617 27713 ft 431 kts 18°
2026-05-04 08:13 11.32427 -1.86640 27266 ft 428 kts 18°
2026-05-04 08:13 11.35231 -1.85673 26816 ft 424 kts 19°
2026-05-04 08:13 11.38022 -1.84711 26383 ft 421 kts 19°
2026-05-04 08:14 11.40750 -1.83770 25953 ft 417 kts 19°
2026-05-04 08:14 11.43493 -1.82824 25509 ft 414 kts 19°
2026-05-04 08:14 11.46223 -1.81882 25065 ft 411 kts 19°
2026-05-04 08:16 11.64745 -1.75488 21908 ft 389 kts 20°
2026-05-04 08:16 11.67301 -1.74605 21483 ft 385 kts 20°
2026-05-04 08:16 11.69829 -1.73731 21070 ft 382 kts 20°
2026-05-04 08:17 11.72333 -1.72865 20661 ft 378 kts 20°
2026-05-04 08:17 11.74816 -1.72006 20253 ft 375 kts 20°
2026-05-04 08:17 11.77276 -1.71155 19847 ft 372 kts 20°
2026-05-04 08:17 11.79692 -1.70319 19447 ft 369 kts 20°
2026-05-04 08:19 11.93671 -1.61597 16754 ft 338 kts 83°
2026-05-04 08:19 11.93576 -1.59219 16391 ft 335 kts 97°
2026-05-04 08:20 11.93242 -1.56874 16018 ft 332 kts 96°
2026-05-04 08:20 11.92981 -1.54538 15637 ft 330 kts 94°
2026-05-04 08:20 11.92825 -1.52214 15265 ft 327 kts 91°
2026-05-04 08:20 11.92799 -1.49902 14894 ft 324 kts 87°
2026-05-04 08:21 11.92983 -1.47614 14506 ft 321 kts 76°
2026-05-04 08:21 11.93909 -1.45570 14149 ft 317 kts 53°
2026-05-04 08:21 11.95526 -1.44064 13801 ft 316 kts 32°
2026-05-04 08:21 11.97572 -1.43293 13512 ft 315 kts 11°
2026-05-04 08:22 11.99739 -1.43371 13171 ft 317 kts 354°
2026-05-04 08:22 12.01904 -1.43798 12789 ft 316 kts 351°
2026-05-04 08:24 12.16085 -1.45767 11145 ft 268 kts 33°
2026-05-04 08:24 12.17441 -1.44494 10846 ft 266 kts 54°
2026-05-04 08:24 12.18358 -1.42858 10580 ft 266 kts 62°
2026-05-04 08:24 12.19229 -1.41194 10265 ft 265 kts 57°
2026-05-04 08:25 12.20278 -1.39641 10000 ft 264 kts 51°
2026-05-04 08:25 12.21486 -1.38230 9705 ft 262 kts 45°
2026-05-04 08:25 12.22809 -1.36979 9368 ft 263 kts 40°
2026-05-04 08:25 12.24267 -1.35849 9047 ft 263 kts 35°
2026-05-04 08:26 12.25834 -1.34862 8712 ft 264 kts 29°
2026-05-04 08:27 12.38407 -1.32947 6633 ft 269 kts 349°
2026-05-04 08:28 12.40224 -1.33427 6364 ft 269 kts 338°
2026-05-04 08:28 12.41735 -1.34459 6331 ft 254 kts 320°
2026-05-04 08:28 12.43053 -1.35591 6240 ft 239 kts 321°
2026-05-04 08:28 12.44293 -1.36613 6183 ft 222 kts 322°
2026-05-04 08:29 12.45417 -1.37519 6419 ft 191 kts 323°
2026-05-04 08:29 12.46405 -1.38308 6326 ft 169 kts 322°
2026-05-04 08:29 12.47277 -1.39002 5987 ft 155 kts 322°
2026-05-04 08:31 12.46291 -1.43855 3313 ft 138 kts 215°
2026-05-04 08:33 12.40722 -1.47610 2042 ft 136 kts 215°
2026-05-04 08:33 12.39939 -1.48137 1888 ft 136 kts 213°
2026-05-04 08:35 12.34473 -1.51801 1036 ft 45 kts 214°
2026-05-04 08:35 12.34235 -1.51967 1039 ft 38 kts 214°
2026-05-04 08:35 12.34038 -1.52104 1044 ft 30 kts 214°
2026-05-04 08:35 12.33880 -1.52214 1046 ft 26 kts 214°
2026-05-04 08:37 12.33603 -1.52404 1040 ft 0 kts 213°